Time,TemperatureF,DewpointF,PressureIn,WindDirection,WindDirectionDegrees,WindSpeedMPH,WindSpeedGustMPH,Humidity,HourlyPrecipIn,Conditions,Clouds,dailyrainin,SoftwareType,DateUTC
2013-01-28 00:05:00,45.8,45.0,29.91,SSW,194,6.0,12.0,98,0.00,,,0.27,weatherlink.com 1.10,2013-01-28 06:05:00,
2013-01-28 00:20:00,46.1,46.0,29.90,SSE,155,5.0,10.0,98,0.00,,,0.27,weatherlink.com 1.10,2013-01-28 06:20:00,
2013-01-28 00:35:00,46.5,46.0,29.90,SSE,154,7.0,13.0,98,0.00,,,0.27,weatherlink.com 1.10,2013-01-28 06:35:00,
2013-01-28 00:50:00,46.8,46.0,29.89,SSE,167,5.0,14.0,98,0.00,,,0.27,weatherlink.com 1.10,2013-01-28 06:50:00,
2013-01-28 01:05:00,46.9,46.0,29.90,SSE,158,6.0,13.0,98,0.00,,,0.27,weatherlink.com 1.10,2013-01-28 07:05:00,
2013-01-28 01:21:00,47.1,47.0,29.89,SSE,148,3.0,9.0,98,0.00,,,0.27,weatherlink.com 1.10,2013-01-28 07:21:00,
2013-01-28 01:36:00,47.1,47.0,29.90,SSE,160,5.0,10.0,98,0.00,,,0.27,weatherlink.com 1.10,2013-01-28 07:36:00,
2013-01-28 01:50:00,47.1,47.0,29.90,SSE,154,4.0,10.0,98,0.00,,,0.27,weatherlink.com 1.10,2013-01-28 07:50:00,
2013-01-28 02:05:00,47.2,47.0,29.90,South,173,4.0,11.0,98,0.00,,,0.27,weatherlink.com 1.10,2013-01-28 08:05:00,
2013-01-28 02:20:00,47.2,47.0,29.90,SSE,162,4.0,14.0,98,0.00,,,0.00,weatherlink.com 1.10,2013-01-28 08:20:00,
2013-01-28 02:35:00,47.3,47.0,29.89,SW,225,7.0,11.0,98,0.00,,,0.00,weatherlink.com 1.10,2013-01-28 08:35:00,
2013-01-28 02:51:00,47.3,47.0,29.89,SE,141,3.0,9.0,98,0.00,,,0.00,weatherlink.com 1.10,2013-01-28 08:51:00,
2013-01-28 03:05:00,47.2,47.0,29.89,SSE,166,6.0,12.0,98,0.00,,,0.00,weatherlink.com 1.10,2013-01-28 09:05:00,
2013-01-28 03:21:00,47.5,47.0,29.88,SSE,155,5.0,10.0,98,0.00,,,0.00,weatherlink.com 1.10,2013-01-28 09:21:00,
2013-01-28 03:36:00,47.9,47.0,29.88,SE,144,5.0,10.0,98,0.00,,,0.00,weatherlink.com 1.10,2013-01-28 09:36:00,
2013-01-28 03:51:00,48.2,48.0,29.88,SSE,164,2.0,9.0,98,0.00,,,0.00,weatherlink.com 1.10,2013-01-28 09:51:00,
2013-01-28 04:06:00,48.6,48.0,29.88,South,180,10.0,13.0,98,0.00,,,0.00,weatherlink.com 1.10,2013-01-28 10:06:00,
2013-01-28 04:21:00,49.1,49.0,29.88,South,190,6.0,15.0,98,0.00,,,0.00,weatherlink.com 1.10,2013-01-28 10:21:00,
2013-01-28 04:36:00,49.7,49.0,29.88,SSW,211,11.0,13.0,98,0.00,,,0.00,weatherlink.com 1.10,2013-01-28 10:36:00,
2013-01-28 04:51:00,49.9,49.0,29.87,SSE,157,6.0,14.0,98,0.00,,,0.00,weatherlink.com 1.10,2013-01-28 10:51:00,
2013-01-28 05:06:00,50.1,49.0,29.87,SSE,160,7.0,12.0,97,0.00,,,0.00,weatherlink.com 1.10,2013-01-28 11:06:00,
2013-01-28 05:21:00,50.1,49.0,29.87,South,176,8.0,14.0,97,0.00,,,0.00,weatherlink.com 1.10,2013-01-28 11:21:00,
2013-01-28 05:36:00,50.2,49.0,29.87,WSW,249,8.0,12.0,97,0.00,,,0.00,weatherlink.com 1.10,2013-01-28 11:36:00,
2013-01-28 05:51:00,50.3,50.0,29.88,WNW,288,8.0,15.0,97,0.00,,,0.00,weatherlink.com 1.10,2013-01-28 11:51:00,
2013-01-28 06:06:00,50.4,50.0,29.88,SW,214,5.0,12.0,98,0.00,,,0.00,weatherlink.com 1.10,2013-01-28 12:06:00,
2013-01-28 06:21:00,50.3,50.0,29.89,South,169,8.0,12.0,97,0.00,,,0.00,weatherlink.com 1.10,2013-01-28 12:21:00,
2013-01-28 06:36:00,50.1,49.0,29.89,South,176,7.0,10.0,97,0.00,,,0.00,weatherlink.com 1.10,2013-01-28 12:36:00,
2013-01-28 06:51:00,50.1,50.0,29.89,SSE,153,9.0,11.0,98,0.00,,,0.00,weatherlink.com 1.10,2013-01-28 12:51:00,
2013-01-28 07:06:00,50.2,50.0,29.89,SSE,153,5.0,10.0,98,0.00,,,0.00,weatherlink.com 1.10,2013-01-28 13:06:00,
2013-01-28 07:21:00,50.6,50.0,29.89,SSW,200,9.0,16.0,98,0.00,,,0.00,weatherlink.com 1.10,2013-01-28 13:21:00,
2013-01-28 07:36:00,51.0,51.0,29.90,SW,214,11.0,13.0,98,0.00,,,0.00,weatherlink.com 1.10,2013-01-28 13:36:00,
2013-01-28 07:51:00,51.3,51.0,29.90,South,191,7.0,13.0,98,0.00,,,0.00,weatherlink.com 1.10,2013-01-28 13:51:00,
2013-01-28 08:06:00,51.6,51.0,29.91,SSW,198,7.0,11.0,98,0.00,,,0.00,weatherlink.com 1.10,2013-01-28 14:06:00,
2013-01-28 08:22:00,52.4,52.0,29.91,SSE,167,7.0,11.0,98,0.00,,,0.00,weatherlink.com 1.10,2013-01-28 14:22:00,
2013-01-28 08:36:00,52.7,52.0,29.91,SSE,158,2.0,9.0,97,0.00,,,0.00,weatherlink.com 1.10,2013-01-28 14:36:00,
2013-01-28 08:51:00,53.1,52.0,29.91,SSW,204,3.0,7.0,97,0.00,,,0.00,weatherlink.com 1.10,2013-01-28 14:51:00,
2013-01-28 09:07:00,53.0,52.0,29.92,NW,326,1.0,3.0,96,0.00,,,0.00,weatherlink.com 1.10,2013-01-28 15:07:00,
2013-01-28 09:21:00,52.8,52.0,29.92,NW,323,1.0,1.0,96,0.00,,,0.00,weatherlink.com 1.10,2013-01-28 15:21:00,
2013-01-28 09:37:00,52.6,52.0,29.93,NW,323,0.0,2.0,96,0.00,,,0.00,weatherlink.com 1.10,2013-01-28 15:37:00,
2013-01-28 09:52:00,52.4,51.0,29.93,WNW,299,1.0,2.0,96,0.00,,,0.00,weatherlink.com 1.10,2013-01-28 15:52:00,
2013-01-28 10:06:00,52.6,52.0,29.93,NNW,334,0.0,1.0,97,0.00,,,0.00,weatherlink.com 1.10,2013-01-28 16:06:00,
2013-01-28 10:21:00,53.3,53.0,29.93,NNW,334,0.0,1.0,97,0.00,,,0.00,weatherlink.com 1.10,2013-01-28 16:21:00,
2013-01-28 10:36:00,54.5,54.0,29.93,NNW,334,0.0,1.0,97,0.00,,,0.00,weatherlink.com 1.10,2013-01-28 16:36:00,
2013-01-28 10:51:00,55.4,54.0,29.94,NNW,334,0.0,1.0,94,0.00,,,0.00,weatherlink.com 1.10,2013-01-28 16:51:00,
2013-01-28 11:06:00,55.4,54.0,29.93,ENE,68,2.0,2.0,93,0.00,,,0.00,weatherlink.com 1.10,2013-01-28 17:06:00,
2013-01-28 11:21:00,55.3,53.0,29.93,East,84,3.0,4.0,93,0.00,,,0.00,weatherlink.com 1.10,2013-01-28 17:21:00,
2013-01-28 11:37:00,55.4,54.0,29.92,ENE,62,2.0,2.0,94,0.00,,,0.00,weatherlink.com 1.10,2013-01-28 17:37:00,
2013-01-28 11:51:00,55.6,54.0,29.91,East,94,1.0,3.0,93,0.00,,,0.00,weatherlink.com 1.10,2013-01-28 17:51:00,
2013-01-28 12:06:00,55.8,54.0,29.91,ENE,71,2.0,3.0,93,0.00,,,0.00,weatherlink.com 1.10,2013-01-28 18:06:00,
2013-01-28 12:21:00,56.1,54.0,29.90,NE,56,2.0,3.0,93,0.00,,,0.00,weatherlink.com 1.10,2013-01-28 18:21:00,
2013-01-28 12:36:00,56.7,55.0,29.89,East,83,3.0,3.0,93,0.00,,,0.00,weatherlink.com 1.10,2013-01-28 18:36:00,
2013-01-28 12:52:00,57.5,55.0,29.89,ENE,76,2.0,2.0,91,0.00,,,0.00,weatherlink.com 1.10,2013-01-28 18:52:00,
2013-01-28 13:07:00,58.1,56.0,29.88,ENE,73,3.0,3.0,91,0.00,,,0.00,weatherlink.com 1.10,2013-01-28 19:07:00,
2013-01-28 13:22:00,58.3,56.0,29.87,ESE,108,2.0,4.0,90,0.00,,,0.00,weatherlink.com 1.10,2013-01-28 19:22:00,
2013-01-28 13:37:00,58.4,56.0,29.87,ENE,77,4.0,4.0,90,0.00,,,0.00,weatherlink.com 1.10,2013-01-28 19:37:00,
2013-01-28 13:52:00,58.5,56.0,29.87,ENE,63,3.0,3.0,91,0.00,,,0.00,weatherlink.com 1.10,2013-01-28 19:52:00,
2013-01-28 14:07:00,58.5,56.0,29.86,East,86,2.0,4.0,91,0.00,,,0.00,weatherlink.com 1.10,2013-01-28 20:07:00,
2013-01-28 14:22:00,58.4,56.0,29.86,East,91,3.0,4.0,91,0.00,,,0.00,weatherlink.com 1.10,2013-01-28 20:22:00,
2013-01-28 14:37:00,57.9,55.0,29.86,East,81,3.0,3.0,91,0.00,,,0.00,weatherlink.com 1.10,2013-01-28 20:37:00,
2013-01-28 14:52:00,58.0,55.0,29.86,ENE,77,4.0,5.0,91,0.00,,,0.00,weatherlink.com 1.10,2013-01-28 20:52:00,
2013-01-28 15:07:00,58.1,56.0,29.86,East,84,4.0,5.0,91,0.00,,,0.00,weatherlink.com 1.10,2013-01-28 21:07:00,
2013-01-28 15:22:00,58.2,56.0,29.85,ENE,58,5.0,7.0,91,0.00,,,0.00,weatherlink.com 1.10,2013-01-28 21:22:00,
2013-01-28 15:37:00,58.1,56.0,29.86,East,92,5.0,6.0,91,0.00,,,0.00,weatherlink.com 1.10,2013-01-28 21:37:00,
2013-01-28 15:52:00,58.2,56.0,29.85,East,81,5.0,6.0,91,0.00,,,0.00,weatherlink.com 1.10,2013-01-28 21:52:00,
2013-01-28 16:07:00,57.8,55.0,29.85,East,79,6.0,7.0,91,0.00,,,0.00,weatherlink.com 1.10,2013-01-28 22:07:00,
2013-01-28 16:22:00,57.3,55.0,29.84,ENE,77,4.0,6.0,92,0.00,,,0.00,weatherlink.com 1.10,2013-01-28 22:22:00,
2013-01-28 16:37:00,56.7,55.0,29.84,East,86,5.0,6.0,92,0.00,,,0.00,weatherlink.com 1.10,2013-01-28 22:37:00,
2013-01-28 16:52:00,56.0,54.0,29.84,East,84,5.0,5.0,93,0.00,,,0.00,weatherlink.com 1.10,2013-01-28 22:52:00,
2013-01-28 17:07:00,55.2,54.0,29.84,East,81,3.0,4.0,94,0.00,,,0.00,weatherlink.com 1.10,2013-01-28 23:07:00,
2013-01-28 17:22:00,54.4,53.0,29.84,East,81,4.0,5.0,96,0.00,,,0.00,weatherlink.com 1.10,2013-01-28 23:22:00,
2013-01-28 17:37:00,53.9,53.0,29.83,East,83,3.0,4.0,96,0.00,,,0.00,weatherlink.com 1.10,2013-01-28 23:37:00,
2013-01-28 17:52:00,53.7,53.0,29.83,East,84,4.0,5.0,97,0.00,,,0.00,weatherlink.com 1.10,2013-01-28 23:52:00,
2013-01-28 18:07:00,53.6,53.0,29.83,East,84,4.0,6.0,97,0.00,,,0.00,weatherlink.com 1.10,2013-01-29 00:07:00,
2013-01-28 18:22:00,53.6,53.0,29.83,East,79,5.0,6.0,97,0.00,,,0.00,weatherlink.com 1.10,2013-01-29 00:22:00,
2013-01-28 18:37:00,53.7,53.0,29.83,East,79,4.0,6.0,98,0.00,,,0.00,weatherlink.com 1.10,2013-01-29 00:37:00,
2013-01-28 18:52:00,53.9,53.0,29.83,ESE,103,3.0,5.0,98,0.00,,,0.00,weatherlink.com 1.10,2013-01-29 00:52:00,
2013-01-28 19:09:00,55.2,55.0,29.83,East,86,5.0,6.0,98,0.00,,,0.00,weatherlink.com 1.10,2013-01-29 01:09:00,
2013-01-28 19:23:00,55.4,55.0,29.83,ESE,108,3.0,5.0,98,0.00,,,0.00,weatherlink.com 1.10,2013-01-29 01:23:00,
2013-01-28 19:38:00,55.2,55.0,29.83,ESE,122,3.0,6.0,98,0.00,,,0.00,weatherlink.com 1.10,2013-01-29 01:38:00,
2013-01-28 19:52:00,55.1,55.0,29.82,ESE,117,3.0,5.0,98,0.00,,,0.00,weatherlink.com 1.10,2013-01-29 01:52:00,
2013-01-28 20:07:00,55.1,55.0,29.82,ESE,118,2.0,4.0,98,0.00,,,0.00,weatherlink.com 1.10,2013-01-29 02:07:00,
2013-01-28 20:23:00,55.2,55.0,29.81,ESE,113,2.0,5.0,98,0.00,,,0.00,weatherlink.com 1.10,2013-01-29 02:23:00,